Newton, KS

4:57 AM CDT on May 21, 2018 (GMT -0500)
Newton City County

Weather History for KEWK - September, 2013

Change the Weather History Date:

Friday, September 20, 2013

  Actual Average Record
Temperature  
Mean Temperature 63 °F -  
Max Temperature 71 °F 75 °F 90 °F (2017)
Min Temperature 55 °F 54 °F 44 °F (2003)
Degree Days  
Heating Degree Days 2    
Growing Degree Days 13 (Base 50)    
Moisture  
Dew Point 49 °F    
Average Humidity 61    
Maximum Humidity 82    
Minimum Humidity 41    
Precipitation  
Precipitation 0.00 in - - ()
Sea Level Pressure  
Sea Level Pressure 30.07 in    
Wind  
Wind Speed 10 mph (North)    
Max Wind Speed 18 mph    
Max Gust Speed 25 mph    
Visibility 10 miles    
Events      
Averages and records for this station are not official NWS values.
T = Trace of Precipitation, MM = Missing Value Source: NWS Daily Summary

Daily Weather History Graph

Daily Weather History Graph

Search for Another Location

Airport or City:

Astronomy

Sep. 20, 2013 Rise Set
Actual Time 7:15 AM CDT 7:28 PM CDT
Civil Twilight 6:49 AM CDT 7:55 PM CDT
Nautical Twilight 6:18 AM CDT 8:25 PM CDT
Astronomical Twilight 5:46 AM CDT 8:57 PM CDT
Moon 8:05 PM CDT (9/20) 8:29 AM CDT (9/20)
Length of Visible Light 13h 06m
Length of Day
12h 13m
Full, 98% of the Moon is Illuminated
Sep 20
Full
Sep 26
Last Quarter
Oct 4
New
Oct 11
First Quarter
Oct 18
Full

Hourly Weather History & Observations

Time (CDT) Temp. Dew Point Humidity Pressure Visibility Wind Dir Wind Speed Gust Speed Precip Events Conditions
12:15 AM 64.4 °F 57.2 °F 77% 30.03 in 10.0 mi North 6.9 mph - N/A   Mostly Cloudy
12:35 AM 64.4 °F 57.2 °F 77% 30.03 in 10.0 mi North 6.9 mph - N/A   Overcast
12:55 AM 62.6 °F 57.2 °F 82% 30.03 in 10.0 mi North 6.9 mph - N/A   Mostly Cloudy
1:15 AM 62.6 °F 55.4 °F 77% 30.03 in 10.0 mi North 6.9 mph - N/A   Partly Cloudy
1:35 AM 62.6 °F 55.4 °F 77% 30.04 in 10.0 mi NNW 5.8 mph - N/A   Clear
1:55 AM 62.6 °F 55.4 °F 77% 30.03 in 10.0 mi North 11.5 mph - N/A   Clear
2:15 AM 62.6 °F 53.6 °F 72% 30.03 in 10.0 mi North 15.0 mph - N/A   Clear
2:35 AM 60.8 °F 51.8 °F 72% 30.03 in 10.0 mi North 13.8 mph 18.4 mph N/A   Clear
2:55 AM 60.8 °F 51.8 °F 72% 30.02 in 10.0 mi North 16.1 mph - N/A   Clear
3:15 AM 60.8 °F 51.8 °F 72% 30.03 in 10.0 mi NNE 15.0 mph 21.9 mph N/A   Clear
3:35 AM 60.8 °F 51.8 °F 72% 30.03 in 10.0 mi North 11.5 mph 21.9 mph N/A   Clear
3:55 AM 60.8 °F 50.0 °F 68% 30.04 in 10.0 mi NNE 13.8 mph 18.4 mph N/A   Clear
4:15 AM 60.8 °F 50.0 °F 68% 30.05 in 10.0 mi NNE 11.5 mph - N/A   Clear
4:35 AM 59.0 °F 50.0 °F 72% 30.06 in 10.0 mi NNE 11.5 mph - N/A   Clear
4:55 AM 59.0 °F 50.0 °F 72% 30.07 in 10.0 mi NNE 9.2 mph - N/A   Clear
5:15 AM 57.2 °F 50.0 °F 77% 30.07 in 10.0 mi NNE 9.2 mph - N/A   Clear
5:35 AM 57.2 °F 50.0 °F 77% 30.08 in 10.0 mi NNE 9.2 mph - N/A   Clear
5:55 AM 57.2 °F 50.0 °F 77% 30.08 in 10.0 mi NNE 8.1 mph - N/A   Clear
6:15 AM 57.2 °F 50.0 °F 77% 30.08 in 10.0 mi NNE 6.9 mph - N/A   Clear
6:35 AM 57.2 °F 50.0 °F 77% 30.08 in 10.0 mi NNE 8.1 mph - N/A   Clear
6:55 AM 57.2 °F 50.0 °F 77% 30.09 in 10.0 mi North 9.2 mph - N/A   Clear
7:15 AM 55.4 °F 50.0 °F 82% 30.10 in 10.0 mi North 9.2 mph - N/A   Clear
7:35 AM 55.4 °F 50.0 °F 82% 30.10 in 10.0 mi North 9.2 mph - N/A   Clear
7:55 AM 55.4 °F 50.0 °F 82% 30.12 in 10.0 mi North 11.5 mph - N/A   Clear
8:15 AM 55.4 °F 50.0 °F 82% 30.12 in 10.0 mi North 11.5 mph - N/A   Clear
8:35 AM 57.2 °F 50.0 °F 77% 30.12 in 10.0 mi NNE 11.5 mph - N/A   Clear
8:55 AM 57.2 °F 50.0 °F 77% 30.12 in 10.0 mi North 12.7 mph - N/A   Clear
9:15 AM 57.2 °F 51.8 °F 82% 30.13 in 10.0 mi North 10.4 mph 17.3 mph N/A   Clear
9:35 AM 59.0 °F 50.0 °F 72% 30.14 in 10.0 mi North 12.7 mph 21.9 mph N/A   Clear
9:55 AM 60.8 °F 51.8 °F 72% 30.14 in 10.0 mi North 18.4 mph - N/A   Clear
10:15 AM 60.8 °F 48.2 °F 63% 30.14 in 10.0 mi NNE 13.8 mph 25.3 mph N/A   Clear
10:35 AM 62.6 °F 48.2 °F 59% 30.14 in 10.0 mi NNE 17.3 mph - N/A   Clear
10:55 AM 62.6 °F 46.4 °F 55% 30.14 in 10.0 mi NNE 16.1 mph - N/A   Clear
11:15 AM 64.4 °F 46.4 °F 52% 30.13 in 10.0 mi NNE 12.7 mph 20.7 mph N/A   Clear
11:35 AM 64.4 °F 46.4 °F 52% 30.14 in 10.0 mi North 15.0 mph - N/A   Clear
11:55 AM 64.4 °F 46.4 °F 52% 30.13 in 10.0 mi North 16.1 mph 19.6 mph N/A   Clear
12:15 PM 66.2 °F 46.4 °F 49% 30.13 in 10.0 mi NNE 15.0 mph 20.7 mph N/A   Clear
12:35 PM 66.2 °F 46.4 °F 49% 30.12 in 10.0 mi North 15.0 mph 20.7 mph N/A   Clear
12:55 PM 68.0 °F 46.4 °F 46% 30.11 in 10.0 mi NNE 13.8 mph - N/A   Clear
1:15 PM 68.0 °F 46.4 °F 46% 30.10 in 10.0 mi North 15.0 mph 20.7 mph N/A   Clear
1:35 PM 69.8 °F 48.2 °F 46% 30.09 in 9.0 mi North 15.0 mph 18.4 mph N/A   Clear
1:55 PM 69.8 °F 46.4 °F 43% 30.09 in 10.0 mi NNE 13.8 mph 19.6 mph N/A   Clear
2:15 PM 69.8 °F 46.4 °F 43% 30.07 in 10.0 mi North 13.8 mph 19.6 mph N/A   Clear
2:35 PM 69.8 °F 46.4 °F 43% 30.06 in 10.0 mi North 13.8 mph 20.7 mph N/A   Clear
2:55 PM 69.8 °F 46.4 °F 43% 30.06 in 10.0 mi North 17.3 mph 20.7 mph N/A   Clear
3:15 PM 71.6 °F 46.4 °F 41% 30.05 in 10.0 mi North 13.8 mph 19.6 mph N/A   Clear
3:35 PM 69.8 °F 46.4 °F 43% 30.05 in 10.0 mi North 15.0 mph 19.6 mph N/A   Clear
3:55 PM 69.8 °F 46.4 °F 43% 30.05 in 10.0 mi North 11.5 mph - N/A   Clear
4:15 PM 69.8 °F 46.4 °F 43% 30.04 in 10.0 mi NNE 10.4 mph - N/A   Clear
4:35 PM 69.8 °F 46.4 °F 43% 30.04 in 10.0 mi North 9.2 mph - N/A   Clear
4:55 PM 69.8 °F 48.2 °F 46% 30.03 in 10.0 mi NNE 8.1 mph - N/A   Clear
5:15 PM 71.6 °F 48.2 °F 43% 30.03 in 10.0 mi North 10.4 mph - N/A   Clear
5:35 PM 71.6 °F 46.4 °F 41% 30.03 in 10.0 mi North 13.8 mph - N/A   Clear
5:55 PM 71.6 °F 46.4 °F 41% 30.03 in 10.0 mi North 10.4 mph - N/A   Clear
6:15 PM 71.6 °F 46.4 °F 41% 30.03 in 10.0 mi North 11.5 mph - N/A   Clear
6:35 PM 71.6 °F 46.4 °F 41% 30.03 in 10.0 mi North 8.1 mph - N/A   Clear
6:55 PM 69.8 °F 46.4 °F 43% 30.03 in 10.0 mi North 8.1 mph - N/A   Clear
7:15 PM 66.2 °F 46.4 °F 49% 30.03 in 10.0 mi North 5.8 mph - N/A   Clear
7:35 PM 64.4 °F 46.4 °F 52% 30.04 in 10.0 mi North 4.6 mph - N/A   Clear
7:55 PM 64.4 °F 46.4 °F 52% 30.04 in 10.0 mi NNE 3.5 mph - N/A   Clear
8:15 PM 64.4 °F 46.4 °F 52% 30.05 in 10.0 mi North 3.5 mph - N/A   Clear
8:35 PM 64.4 °F 44.6 °F 49% 30.05 in 10.0 mi Calm Calm - N/A   Clear
8:55 PM 64.4 °F 44.6 °F 49% 30.05 in 10.0 mi Calm Calm - N/A   Clear
9:15 PM 62.6 °F 44.6 °F 52% 30.05 in 10.0 mi Calm Calm - N/A   Clear
9:35 PM 62.6 °F 44.6 °F 52% 30.06 in 10.0 mi Calm Calm - N/A   Clear
9:55 PM 60.8 °F 44.6 °F 55% 30.06 in 10.0 mi Calm Calm - N/A   Clear
10:15 PM 59.0 °F 46.4 °F 63% 30.06 in 10.0 mi Calm Calm - N/A   Clear
10:35 PM 59.0 °F 46.4 °F 63% 30.06 in 10.0 mi Calm Calm - N/A   Clear
10:55 PM 60.8 °F 46.4 °F 59% 30.06 in 10.0 mi Calm Calm - N/A   Clear
11:15 PM 60.8 °F 44.6 °F 55% 30.05 in 10.0 mi Calm Calm - N/A   Clear
11:35 PM 57.2 °F 44.6 °F 63% 30.05 in 10.0 mi Calm Calm - N/A   Clear
11:55 PM 57.2 °F 46.4 °F 67% 30.05 in 10.0 mi Calm Calm - N/A   Clear